Fort Lewis, WA
on Wednesday, December 19, 2012

Wednesday
Previous Day Next Day
Daily Summary
 ActualAverage (KOLM)Record (KOLM)
Temperature
Mean Temperature °F 38°F  
Max Temperature 46°F 44°F 55°F (1959)
Min Temperature 32°F 32°F 11°F (2008)
Degree Days
Heating Degree Days 26 27  
Month to date heating degree days 502  
Since 1 July heating degree days 1947  
Cooling Degree Days 0 0  
Month to date cooling degree days 0  
Year to date cooling degree days 106  
Moisture
Dew Point 37°F   
Average Humidity 88    
Maximum Humidity 100    
Minimum Humidity 66    
Precipitation
Precipitation 0.92 in 0.22 in 1.38 in (1948)
Month to date precipitation 4.71  
Year to date precipitation 47.25  
Wind
Wind Speed 11 mph   
Max Wind Speed 24 mph   
Max Gust Speed 38 mph   
Visibility 9 miles   
Events Rain   

Key: T is trace of precipitation, MM is missing value
Source: NWS Daily Summary
Time(PST)TemperatureDew PointHumidity Pressure Visibility Wind DirectionWind SpeedGust SpeedPrecipitationEvents Conditions
12:58 AM 32.2°F 29.8°F 91% 29.95 in 10.0 miles ESE 4.6 mph - N/A   Scattered Clouds
1:58 AM 34.5°F 29.8°F 83% 29.93 in 10.0 miles East 5.8 mph - N/A   Scattered Clouds
2:24 AM 35.6°F 30.2°F 81% 29.89 in 10.0 miles ESE 10.4 mph - N/A   Mostly Cloudy
2:58 AM 35.1°F 30.9°F 85% 29.88 in 6.0 miles East 9.2 mph - 0.00 in   Overcast
3:10 AM 33.8°F 32.0°F 93% 29.85 in 10.0 miles ESE 8.1 mph - N/A   Overcast
3:16 AM 33.8°F 32.0°F 93% 29.84 in 10.0 miles ESE 9.2 mph - N/A   Overcast
3:24 AM 35.6°F 32.0°F 87% 29.84 in 10.0 miles ESE 9.2 mph - N/A   Overcast
3:58 AM 34.7°F 31.8°F 89% 29.83 in 10.0 miles ESE 9.2 mph - 0.01 in   Overcast
4:18 AM 35.6°F 32.0°F 87% 29.80 in 10.0 miles SE 10.4 mph - N/A   Mostly Cloudy
4:58 AM 34.3°F 32.4°F 92% 29.80 in 10.0 miles SE 11.5 mph - 0.01 in   Partly Cloudy
5:58 AM 38.1°F 31.8°F 78% 29.78 in 10.0 miles SSE 13.8 mph - N/A   Scattered Clouds
6:58 AM 38.3°F 32.0°F 78% 29.76 in 10.0 miles SSE 12.7 mph 19.6 mph N/A   Mostly Cloudy
7:58 AM 39.6°F 32.4°F 75% 29.73 in 10.0 miles ESE 13.8 mph 20.7 mph N/A   Clear
8:58 AM 40.3°F 32.9°F 75% 29.71 in 10.0 miles SE 15.0 mph 21.9 mph N/A   Partly Cloudy
9:58 AM 43.7°F 33.1°F 66% 29.70 in 10.0 miles SSE 20.7 mph 28.8 mph N/A   Scattered Clouds
10:58 AM 43.3°F 34.7°F 72% 29.69 in 10.0 miles SE 18.4 mph 27.6 mph N/A   Scattered Clouds
11:58 AM 44.6°F 34.9°F 69% 29.67 in 10.0 miles SSE 19.6 mph 27.6 mph N/A   Overcast
12:58 PM 45.3°F 35.2°F 68% 29.63 in 10.0 miles SE 18.4 mph 26.5 mph N/A   Overcast
1:02 PM 44.6°F 35.6°F 71% 29.61 in 10.0 miles SE 23.0 mph 31.1 mph N/A   Light Drizzle
1:06 PM 44.6°F 35.6°F 71% 29.61 in 10.0 miles SSE 18.4 mph 31.1 mph N/A   Mostly Cloudy
1:58 PM 46.0°F 36.3°F 69% 29.62 in 10.0 miles SSE 20.7 mph 31.1 mph 0.00 in   Overcast
2:03 PM 46.4°F 37.4°F 71% 29.60 in 10.0 miles SSE 24.2 mph 33.4 mph N/A   Light Drizzle
2:15 PM 44.6°F 37.4°F 76% 29.60 in 10.0 miles SSE 20.7 mph 38.0 mph N/A   Overcast
2:22 PM 44.6°F 37.4°F 76% 29.61 in 10.0 miles SSE 18.4 mph 27.6 mph N/A   Light Drizzle
2:58 PM 43.3°F 38.7°F 84% 29.64 in 10.0 miles South 12.7 mph 21.9 mph 0.04 in Rain Light Rain
3:58 PM 42.4°F 39.6°F 90% 29.66 in 6.0 miles SSW 10.4 mph - 0.11 in Rain Light Rain
4:28 PM 41.0°F 39.2°F 93% 29.65 in 6.0 miles South 15.0 mph - N/A Rain Light Rain
4:38 PM 41.0°F 39.2°F 93% 29.65 in 5.0 miles South 12.7 mph 20.7 mph N/A   Overcast
4:47 PM 41.0°F 37.4°F 87% 29.65 in 5.0 miles South 15.0 mph 21.9 mph N/A Rain Light Rain
4:48 PM 41.0°F 37.4°F 87% 29.65 in 6.0 miles South 12.7 mph 21.9 mph N/A   Overcast
4:54 PM 41.0°F 37.4°F 87% 29.65 in 8.0 miles South 12.7 mph 20.7 mph N/A Rain Light Rain
4:58 PM 40.6°F 38.3°F 91% 29.67 in 10.0 miles SSE 18.4 mph 25.3 mph 0.27 in Rain Light Rain
5:00 PM 41.0°F 37.4°F 87% 29.65 in 10.0 miles SSE 16.1 mph 25.3 mph N/A Rain Light Rain
5:58 PM 40.5°F 37.8°F 90% 29.68 in 10.0 miles SSE 17.3 mph - 0.13 in Rain Light Rain
6:23 PM 39.2°F 37.4°F 93% 29.67 in 9.0 miles SSE 16.1 mph - N/A Rain Light Rain
6:28 PM 39.2°F 37.4°F 93% 29.67 in 10.0 miles SE 12.7 mph - N/A Rain Light Rain
6:31 PM 39.2°F 37.4°F 93% 29.66 in 10.0 miles SSE 11.5 mph - N/A Rain Light Rain
6:43 PM 39.2°F 37.4°F 93% 29.65 in 10.0 miles ESE 11.5 mph - N/A Rain Light Rain
6:56 PM 39.2°F 37.4°F 93% 29.65 in 10.0 miles SE 16.1 mph 21.9 mph N/A   Overcast
6:58 PM 39.7°F 37.6°F 92% 29.67 in 10.0 miles SE 16.1 mph - 0.11 in   Overcast
7:03 PM 39.2°F 37.4°F 93% 29.65 in 10.0 miles SE 13.8 mph 23.0 mph N/A   Overcast
7:05 PM 41.0°F 37.4°F 87% 29.65 in 10.0 miles SE 13.8 mph 23.0 mph N/A   Light Drizzle
7:15 PM 41.0°F 37.4°F 87% 29.65 in 9.0 miles SE 18.4 mph 24.2 mph N/A Rain Light Rain
7:20 PM 41.0°F 37.4°F 87% 29.65 in 10.0 miles SE 16.1 mph - N/A Rain Light Rain
7:35 PM 39.2°F 37.4°F 93% 29.65 in 9.0 miles SE 13.8 mph - N/A Rain Light Rain
7:50 PM 41.0°F 37.4°F 87% 29.65 in 10.0 miles SE 13.8 mph - N/A Rain Light Rain
7:55 PM 41.0°F 37.4°F 87% 29.65 in 9.0 miles ESE 10.4 mph - N/A Rain Light Rain
7:58 PM 40.1°F 37.9°F 92% 29.67 in 8.0 miles ESE 10.4 mph - 0.07 in Rain Light Rain
8:07 PM 41.0°F 39.2°F 93% 29.64 in 9.0 miles ESE 8.1 mph - N/A   Light Drizzle
8:09 PM 41.0°F 39.2°F 93% 29.64 in 9.0 miles ESE 9.2 mph - N/A   Light Drizzle
8:10 PM 41.0°F 39.2°F 93% 29.64 in 9.0 miles ESE 10.4 mph - N/A   Light Drizzle
8:13 PM 41.0°F 39.2°F 93% 29.64 in 9.0 miles ESE 9.2 mph - N/A   Light Drizzle
8:18 PM 41.0°F 37.4°F 87% 29.64 in 10.0 miles ESE 9.2 mph - N/A   Light Drizzle
8:25 PM 41.0°F 37.4°F 87% 29.64 in 10.0 miles ESE 6.9 mph - N/A   Light Drizzle
8:32 PM 41.0°F 37.4°F 87% 29.63 in 10.0 miles ESE 5.8 mph - N/A   Overcast
8:34 PM 41.0°F 39.2°F 93% 29.63 in 10.0 miles ESE 5.8 mph - N/A   Light Drizzle
8:49 PM 39.2°F 39.2°F 100% 29.62 in 9.0 miles ESE 4.6 mph - N/A   Light Drizzle
8:58 PM 39.9°F 38.7°F 95% 29.64 in 10.0 miles ESE 5.8 mph - 0.07 in   Light Drizzle
8:59 PM 39.2°F 39.2°F 100% 29.64 in 10.0 miles ESE 5.8 mph - N/A   Light Drizzle
9:09 PM 39.2°F 39.2°F 100% 29.61 in 10.0 miles ESE 6.9 mph - N/A   Overcast
9:12 PM 39.2°F 39.2°F 100% 29.61 in 10.0 miles ESE 6.9 mph - N/A   Light Drizzle
9:58 PM 40.5°F 38.7°F 93% 29.62 in 9.0 miles SE 4.6 mph - 0.03 in Rain Light Rain
10:44 PM 41.0°F 39.2°F 93% 29.57 in 10.0 miles ENE 2.3 mph - N/A   Overcast
10:58 PM 40.1°F 39.0°F 96% 29.58 in 10.0 miles NNE 2.3 mph - 0.05 in   Overcast
11:05 PM 39.2°F 39.2°F 100% 29.55 in 10.0 miles NNW 1.2 mph - N/A   Light Drizzle
11:34 PM 39.2°F 39.2°F 100% 29.54 in 10.0 miles NW 3.5 mph - N/A   Overcast
11:40 PM 39.2°F 39.2°F 100% 29.54 in 10.0 miles North 2.3 mph - N/A   Light Drizzle
11:55 PM 39.2°F 39.2°F 100% 29.52 in 10.0 miles NE 2.3 mph - N/A   Overcast
11:58 PM 39.6°F 39.2°F 99% 29.54 in 10.0 miles NNE 3.5 mph - 0.02 in   Overcast
Moon Phase
Dec. 19 Dec. 20 Dec. 28 Jan. 04 Jan. 11
Sunrise:07:52 AM (PST) Moon Rise:11:38 AM (PST)12/19
Sunset:04:22 PM (PST) Moon Set:No Moon Set/

Copyright © 2014 The Weather Underground, Inc.